Time,TemperatureF,DewpointF,PressureIn,WindDirection,WindDirectionDegrees,WindSpeedMPH,WindSpeedGustMPH,Humidity,HourlyPrecipIn,Conditions,Clouds,dailyrainin,SoftwareType,DateUTC
2013-01-10 00:03:00,44.0,26.0,-100.00,West,260,7.0,14.0,49,0.00,,,-99.99,,2013-01-10 05:03:00,
2013-01-10 00:12:00,43.0,26.0,-100.00,West,270,9.0,20.0,48,0.00,,,-99.99,,2013-01-10 05:12:00,
2013-01-10 00:22:00,44.0,25.0,-100.00,WNW,285,7.0,19.0,48,0.00,,,-99.99,,2013-01-10 05:22:00,
2013-01-10 00:33:00,43.0,26.0,-100.00,WSW,250,3.0,13.0,50,0.00,,,-99.99,,2013-01-10 05:33:00,
2013-01-10 00:42:00,43.0,26.0,-100.00,West,260,3.0,15.0,49,0.00,,,-99.99,,2013-01-10 05:42:00,
2013-01-10 00:52:00,42.0,25.0,-100.00,WSW,245,4.0,10.0,50,0.00,,,-99.99,,2013-01-10 05:52:00,
2013-01-10 01:02:00,42.0,25.0,-100.00,West,265,4.0,11.0,51,0.00,,,-99.99,,2013-01-10 06:02:00,
2013-01-10 01:12:00,42.0,26.0,-100.00,WSW,255,4.0,13.0,51,0.00,,,-99.99,,2013-01-10 06:12:00,
2013-01-10 01:22:00,43.0,26.0,-100.00,West,275,9.0,17.0,50,0.00,,,-99.99,,2013-01-10 06:22:00,
2013-01-10 01:32:00,43.0,26.0,-100.00,WSW,255,4.0,12.0,50,0.00,,,-99.99,,2013-01-10 06:32:00,
2013-01-10 01:42:00,43.0,26.0,-100.00,West,265,5.0,18.0,50,0.00,,,-99.99,,2013-01-10 06:42:00,
2013-01-10 01:52:00,43.0,26.0,-100.00,West,270,9.0,23.0,50,0.00,,,-99.99,,2013-01-10 06:52:00,
2013-01-10 02:02:00,44.0,27.0,-100.00,WNW,285,12.0,26.0,51,0.00,,,-99.99,,2013-01-10 07:02:00,
2013-01-10 02:12:00,43.0,28.0,-100.00,WNW,285,7.0,26.0,54,0.00,,,-99.99,,2013-01-10 07:12:00,
2013-01-10 02:22:00,43.0,27.0,-100.00,WNW,285,11.0,20.0,53,0.00,,,-99.99,,2013-01-10 07:22:00,
2013-01-10 02:32:00,43.0,27.0,-100.00,NW,320,5.0,16.0,54,0.00,,,-99.99,,2013-01-10 07:32:00,
2013-01-10 02:42:00,43.0,25.0,-100.00,NW,315,9.0,22.0,50,0.00,,,-99.99,,2013-01-10 07:42:00,
2013-01-10 02:52:00,43.0,24.0,-100.00,NNW,340,9.0,26.0,48,0.00,,,-99.99,,2013-01-10 07:52:00,
2013-01-10 03:02:00,42.0,25.0,-100.00,West,265,6.0,18.0,50,0.00,,,-99.99,,2013-01-10 08:02:00,
2013-01-10 03:12:00,42.0,24.0,-100.00,NW,325,5.0,19.0,49,0.00,,,-99.99,,2013-01-10 08:12:00,
2013-01-10 03:22:00,42.0,24.0,-100.00,NNW,340,9.0,20.0,47,0.00,,,-99.99,,2013-01-10 08:22:00,
2013-01-10 03:32:00,42.0,24.0,-100.00,West,270,7.0,16.0,48,0.00,,,-99.99,,2013-01-10 08:32:00,
2013-01-10 03:42:00,42.0,24.0,-100.00,West,275,5.0,16.0,50,0.00,,,-99.99,,2013-01-10 08:42:00,
2013-01-10 03:52:00,42.0,24.0,-100.00,WNW,285,9.0,23.0,49,0.00,,,-99.99,,2013-01-10 08:52:00,
2013-01-10 04:02:00,41.0,25.0,-100.00,West,280,4.0,13.0,51,0.00,,,-99.99,,2013-01-10 09:02:00,
2013-01-10 04:12:00,41.0,25.0,-100.00,NW,310,6.0,15.0,51,0.00,,,-99.99,,2013-01-10 09:12:00,
2013-01-10 04:22:00,41.0,25.0,-100.00,West,280,9.0,18.0,51,0.00,,,-99.99,,2013-01-10 09:22:00,
2013-01-10 04:32:00,41.0,24.0,-100.00,NW,305,10.0,23.0,50,0.00,,,-99.99,,2013-01-10 09:32:00,
2013-01-10 04:42:00,41.0,25.0,-100.00,West,280,7.0,19.0,51,0.00,,,-99.99,,2013-01-10 09:42:00,
2013-01-10 04:52:00,41.0,25.0,-100.00,NNW,345,8.0,21.0,52,0.00,,,-99.99,,2013-01-10 09:52:00,
2013-01-10 05:03:00,41.0,25.0,-100.00,NNW,330,10.0,21.0,52,0.00,,,-99.99,,2013-01-10 10:03:00,
2013-01-10 05:12:00,41.0,25.0,-100.00,NNW,335,9.0,20.0,53,0.00,,,-99.99,,2013-01-10 10:12:00,
2013-01-10 05:22:00,40.0,26.0,-100.00,West,270,6.0,21.0,55,0.00,,,-99.99,,2013-01-10 10:22:00,
2013-01-10 05:32:00,40.0,25.0,-100.00,NNW,340,9.0,19.0,54,0.00,,,-99.99,,2013-01-10 10:32:00,
2013-01-10 05:42:00,40.0,24.0,-100.00,NNW,340,6.0,20.0,52,0.00,,,-99.99,,2013-01-10 10:42:00,
2013-01-10 05:52:00,40.0,25.0,-100.00,NW,305,7.0,21.0,53,0.00,,,-99.99,,2013-01-10 10:52:00,
2013-01-10 06:02:00,40.0,24.0,-100.00,NNW,345,7.0,16.0,53,0.00,,,-99.99,,2013-01-10 11:02:00,
2013-01-10 06:12:00,40.0,24.0,-100.00,NNW,330,7.0,19.0,53,0.00,,,-99.99,,2013-01-10 11:12:00,
2013-01-10 06:22:00,40.0,24.0,-100.00,NNW,340,9.0,17.0,53,0.00,,,-99.99,,2013-01-10 11:22:00,
2013-01-10 06:33:00,39.0,24.0,-100.00,NW,315,6.0,16.0,54,0.00,,,-99.99,,2013-01-10 11:33:00,
2013-01-10 06:43:00,39.0,24.0,-100.00,NNW,330,6.0,17.0,53,0.00,,,-99.99,,2013-01-10 11:43:00,
2013-01-10 06:52:00,39.0,24.0,-100.00,WNW,290,5.0,11.0,54,0.00,,,-99.99,,2013-01-10 11:52:00,
2013-01-10 07:03:00,39.0,24.0,-100.00,NNW,340,6.0,13.0,52,0.00,,,-99.99,,2013-01-10 12:03:00,
2013-01-10 07:12:00,39.0,23.0,-100.00,NNW,345,4.0,10.0,53,0.00,,,-99.99,,2013-01-10 12:12:00,
2013-01-10 07:22:00,39.0,23.0,-100.00,NNW,345,4.0,8.0,52,0.00,,,-99.99,,2013-01-10 12:22:00,
2013-01-10 07:33:00,39.0,22.0,-100.00,West,280,4.0,16.0,51,0.00,,,-99.99,,2013-01-10 12:33:00,
2013-01-10 07:43:00,38.0,22.0,-100.00,WNW,295,4.0,12.0,51,0.00,,,-99.99,,2013-01-10 12:43:00,
2013-01-10 07:53:00,38.0,22.0,-100.00,West,265,4.0,11.0,50,0.00,,,-99.99,,2013-01-10 12:53:00,
2013-01-10 08:02:00,38.0,22.0,-100.00,West,280,4.0,11.0,50,0.00,,,-99.99,,2013-01-10 13:02:00,
2013-01-10 08:12:00,39.0,21.0,-100.00,WNW,290,6.0,9.0,49,0.00,,,-99.99,,2013-01-10 13:12:00,
2013-01-10 08:22:00,39.0,21.0,-100.00,WNW,285,5.0,12.0,48,0.00,,,-99.99,,2013-01-10 13:22:00,
2013-01-10 08:32:00,39.0,21.0,-100.00,NW,320,5.0,14.0,47,0.00,,,-99.99,,2013-01-10 13:32:00,
2013-01-10 08:42:00,40.0,21.0,-100.00,NW,315,7.0,16.0,46,0.00,,,-99.99,,2013-01-10 13:42:00,
2013-01-10 08:52:00,40.0,21.0,-100.00,NNW,335,4.0,16.0,47,0.00,,,-99.99,,2013-01-10 13:52:00,
2013-01-10 09:02:00,40.0,21.0,-100.00,NNW,340,9.0,18.0,45,0.00,,,-99.99,,2013-01-10 14:02:00,
2013-01-10 09:12:00,40.0,21.0,-100.00,NNW,330,9.0,19.0,45,0.00,,,-99.99,,2013-01-10 14:12:00,
2013-01-10 09:22:00,40.0,21.0,-100.00,NNW,345,7.0,26.0,45,0.00,,,-99.99,,2013-01-10 14:22:00,
2013-01-10 09:33:00,41.0,21.0,-100.00,NNW,340,8.0,18.0,44,0.00,,,-99.99,,2013-01-10 14:33:00,
2013-01-10 09:43:00,41.0,22.0,-100.00,NW,320,7.0,21.0,44,0.00,,,-99.99,,2013-01-10 14:43:00,
2013-01-10 09:53:00,42.0,21.0,-100.00,NNW,335,8.0,20.0,43,0.00,,,-99.99,,2013-01-10 14:53:00,
2013-01-10 10:03:00,42.0,22.0,-100.00,WNW,300,7.0,21.0,45,0.00,,,-99.99,,2013-01-10 15:03:00,
2013-01-10 10:12:00,42.0,22.0,-100.00,NNW,335,8.0,19.0,44,0.00,,,-99.99,,2013-01-10 15:12:00,
2013-01-10 10:23:00,42.0,22.0,-100.00,NW,305,7.0,24.0,44,0.00,,,-99.99,,2013-01-10 15:23:00,
2013-01-10 10:33:00,42.0,22.0,-100.00,NNW,335,9.0,26.0,43,0.00,,,-99.99,,2013-01-10 15:33:00,
2013-01-10 10:43:00,42.0,22.0,-100.00,North,5,11.0,24.0,43,0.00,,,-99.99,,2013-01-10 15:43:00,
2013-01-10 10:53:00,43.0,23.0,-100.00,NW,320,6.0,20.0,43,0.00,,,-99.99,,2013-01-10 15:53:00,
2013-01-10 11:03:00,43.0,23.0,-100.00,NW,315,6.0,17.0,43,0.00,,,-99.99,,2013-01-10 16:03:00,
2013-01-10 11:13:00,43.0,22.0,-100.00,NNW,330,7.0,20.0,43,0.00,,,-99.99,,2013-01-10 16:13:00,
2013-01-10 11:23:00,43.0,23.0,-100.00,North,350,5.0,19.0,43,0.00,,,-99.99,,2013-01-10 16:23:00,
2013-01-10 11:33:00,43.0,23.0,-100.00,NW,320,9.0,17.0,43,0.00,,,-99.99,,2013-01-10 16:33:00,
2013-01-10 11:43:00,43.0,23.0,-100.00,NW,325,12.0,22.0,44,0.00,,,-99.99,,2013-01-10 16:43:00,
2013-01-10 11:52:00,43.0,23.0,-100.00,NNW,335,6.0,17.0,43,0.00,,,-99.99,,2013-01-10 16:52:00,
2013-01-10 12:03:00,43.0,22.0,-100.00,NNW,330,13.0,24.0,43,0.00,,,-99.99,,2013-01-10 17:03:00,
2013-01-10 12:12:00,44.0,23.0,-100.00,NNW,345,6.0,23.0,44,0.00,,,-99.99,,2013-01-10 17:12:00,
2013-01-10 12:22:00,43.0,23.0,-100.00,NNW,330,8.0,21.0,44,0.00,,,-99.99,,2013-01-10 17:22:00,
2013-01-10 12:33:00,44.0,23.0,-100.00,NNW,345,9.0,19.0,43,0.00,,,-99.99,,2013-01-10 17:33:00,
2013-01-10 12:42:00,43.0,22.0,-100.00,North,355,11.0,23.0,43,0.00,,,-99.99,,2013-01-10 17:42:00,
2013-01-10 12:53:00,44.0,23.0,-100.00,NNW,340,8.0,17.0,43,0.00,,,-99.99,,2013-01-10 17:53:00,
2013-01-10 13:03:00,44.0,23.0,-100.00,NNW,330,6.0,20.0,43,0.00,,,-99.99,,2013-01-10 18:03:00,
2013-01-10 13:12:00,44.0,23.0,-100.00,NW,315,7.0,16.0,42,0.00,,,-99.99,,2013-01-10 18:12:00,
2013-01-10 13:23:00,44.0,23.0,-100.00,North,350,7.0,19.0,43,0.00,,,-99.99,,2013-01-10 18:23:00,
2013-01-10 13:33:00,44.0,23.0,-100.00,WNW,300,9.0,19.0,42,0.00,,,-99.99,,2013-01-10 18:33:00,
2013-01-10 13:43:00,44.0,23.0,-100.00,NNW,335,7.0,16.0,42,0.00,,,-99.99,,2013-01-10 18:43:00,
2013-01-10 13:52:00,44.0,22.0,-100.00,NNW,330,11.0,19.0,42,0.00,,,-99.99,,2013-01-10 18:52:00,
2013-01-10 14:03:00,45.0,23.0,-100.00,NW,315,6.0,19.0,41,0.00,,,-99.99,,2013-01-10 19:03:00,
2013-01-10 14:13:00,44.0,23.0,-100.00,West,275,7.0,19.0,41,0.00,,,-99.99,,2013-01-10 19:13:00,
2013-01-10 14:23:00,44.0,23.0,-100.00,West,265,7.0,14.0,41,0.00,,,-99.99,,2013-01-10 19:23:00,
2013-01-10 14:33:00,45.0,23.0,-100.00,NNW,330,3.0,14.0,41,0.00,,,-99.99,,2013-01-10 19:33:00,
2013-01-10 14:43:00,44.0,23.0,-100.00,NNW,345,7.0,13.0,41,0.00,,,-99.99,,2013-01-10 19:43:00,
2013-01-10 14:53:00,44.0,23.0,-100.00,North,0,5.0,15.0,41,0.00,,,-99.99,,2013-01-10 19:53:00,
2013-01-10 15:03:00,44.0,22.0,-100.00,NNW,345,6.0,17.0,41,0.00,,,-99.99,,2013-01-10 20:03:00,
2013-01-10 15:13:00,44.0,23.0,-100.00,NW,320,6.0,17.0,42,0.00,,,-99.99,,2013-01-10 20:13:00,
2013-01-10 15:24:00,44.0,23.0,-100.00,NW,315,6.0,13.0,42,0.00,,,-99.99,,2013-01-10 20:24:00,
2013-01-10 15:33:00,44.0,23.0,-100.00,NNW,345,4.0,12.0,42,0.00,,,-99.99,,2013-01-10 20:33:00,
2013-01-10 15:43:00,44.0,23.0,-100.00,NW,320,4.0,11.0,43,0.00,,,-99.99,,2013-01-10 20:43:00,
2013-01-10 15:53:00,43.0,23.0,-100.00,West,280,4.0,12.0,44,0.00,,,-99.99,,2013-01-10 20:53:00,
2013-01-10 16:04:00,42.0,23.0,-100.00,WNW,290,7.0,14.0,44,0.00,,,-99.99,,2013-01-10 21:04:00,
2013-01-10 16:12:00,42.0,22.0,-100.00,West,270,4.0,16.0,45,0.00,,,-99.99,,2013-01-10 21:12:00,
2013-01-10 16:23:00,42.0,22.0,-100.00,NW,325,7.0,16.0,45,0.00,,,-99.99,,2013-01-10 21:23:00,
2013-01-10 16:33:00,41.0,22.0,-100.00,NNW,330,9.0,16.0,45,0.00,,,-99.99,,2013-01-10 21:33:00,
2013-01-10 16:42:00,41.0,22.0,-100.00,NNW,345,6.0,14.0,46,0.00,,,-99.99,,2013-01-10 21:42:00,
2013-01-10 16:53:00,40.0,23.0,-100.00,North,350,4.0,11.0,48,0.00,,,-99.99,,2013-01-10 21:53:00,
2013-01-10 17:04:00,41.0,22.0,-100.00,WNW,295,6.0,11.0,46,0.00,,,-99.99,,2013-01-10 22:04:00,
2013-01-10 17:12:00,40.0,23.0,-100.00,NNW,330,4.0,12.0,49,0.00,,,-99.99,,2013-01-10 22:12:00,
2013-01-10 17:26:00,40.0,23.0,-100.00,NNW,345,6.0,16.0,49,0.00,,,-99.99,,2013-01-10 22:26:00,
2013-01-10 17:33:00,40.0,23.0,-100.00,North,350,6.0,20.0,49,0.00,,,-99.99,,2013-01-10 22:33:00,
2013-01-10 17:43:00,40.0,23.0,-100.00,NNW,330,6.0,13.0,49,0.00,,,-99.99,,2013-01-10 22:43:00,
2013-01-10 18:03:00,40.0,23.0,-100.00,NW,320,9.0,17.0,50,0.00,,,-99.99,,2013-01-10 23:03:00,
2013-01-10 18:13:00,39.0,23.0,-100.00,North,0,7.0,21.0,51,0.00,,,-99.99,,2013-01-10 23:13:00,
2013-01-10 18:23:00,39.0,23.0,-100.00,NNW,335,7.0,13.0,51,0.00,,,-99.99,,2013-01-10 23:23:00,
2013-01-10 18:33:00,39.0,23.0,-100.00,WNW,290,4.0,9.0,52,0.00,,,-99.99,,2013-01-10 23:33:00,
2013-01-10 18:43:00,38.0,23.0,-100.00,ENE,70,2.0,8.0,52,0.00,,,-99.99,,2013-01-10 23:43:00,
2013-01-10 18:53:00,38.0,23.0,-100.00,West,280,2.0,7.0,54,0.00,,,-99.99,,2013-01-10 23:53:00,
2013-01-10 19:03:00,38.0,23.0,-100.00,NNW,335,4.0,9.0,54,0.00,,,-99.99,,2013-01-11 00:03:00,
2013-01-10 19:13:00,38.0,23.0,-100.00,NNW,340,4.0,10.0,53,0.00,,,-99.99,,2013-01-11 00:13:00,
2013-01-10 19:23:00,38.0,22.0,-100.00,NW,305,6.0,11.0,53,0.00,,,-99.99,,2013-01-11 00:23:00,
2013-01-10 19:33:00,37.0,22.0,-100.00,NW,305,4.0,9.0,53,0.00,,,-99.99,,2013-01-11 00:33:00,
2013-01-10 19:42:00,37.0,23.0,-100.00,ENE,65,1.0,7.0,55,0.00,,,-99.99,,2013-01-11 00:42:00,
2013-01-10 19:52:00,36.0,22.0,-100.00,NW,305,2.0,4.0,56,0.00,,,-99.99,,2013-01-11 00:52:00,
2013-01-10 20:03:00,36.0,22.0,-100.00,NW,305,5.0,10.0,55,0.00,,,-99.99,,2013-01-11 01:03:00,
2013-01-10 20:13:00,37.0,22.0,-100.00,NNW,345,4.0,11.0,55,0.00,,,-99.99,,2013-01-11 01:13:00,
2013-01-10 20:23:00,36.0,22.0,-100.00,North,5,3.0,7.0,56,0.00,,,-99.99,,2013-01-11 01:23:00,
2013-01-10 20:34:00,36.0,22.0,-100.00,NNW,335,6.0,9.0,57,0.00,,,-99.99,,2013-01-11 01:34:00,
2013-01-10 20:43:00,36.0,22.0,-100.00,West,270,2.0,11.0,57,0.00,,,-99.99,,2013-01-11 01:43:00,
2013-01-10 20:53:00,36.0,22.0,-100.00,NNE,25,1.0,7.0,56,0.00,,,-99.99,,2013-01-11 01:53:00,
2013-01-10 21:03:00,35.0,23.0,-100.00,West,275,4.0,7.0,59,0.00,,,-99.99,,2013-01-11 02:03:00,
2013-01-10 21:13:00,35.0,22.0,-100.00,NNE,25,2.0,6.0,59,0.00,,,-99.99,,2013-01-11 02:13:00,
2013-01-10 21:23:00,35.0,22.0,-100.00,WNW,295,1.0,3.0,59,0.00,,,-99.99,,2013-01-11 02:23:00,
2013-01-10 21:33:00,33.0,22.0,-100.00,NW,305,3.0,4.0,63,0.00,,,-99.99,,2013-01-11 02:33:00,
2013-01-10 21:43:00,33.0,23.0,-100.00,West,265,1.0,4.0,64,0.00,,,-99.99,,2013-01-11 02:43:00,
2013-01-10 21:53:00,32.0,23.0,-100.00,NNW,340,1.0,2.0,68,0.00,,,-99.99,,2013-01-11 02:53:00,
2013-01-10 22:03:00,31.0,22.0,-100.00,WNW,285,1.0,2.0,70,0.00,,,-99.99,,2013-01-11 03:03:00,
2013-01-10 22:12:00,31.0,23.0,-100.00,NNW,335,1.0,4.0,70,0.00,,,-99.99,,2013-01-11 03:12:00,
2013-01-10 22:23:00,32.0,23.0,-100.00,NNW,345,2.0,5.0,68,0.00,,,-99.99,,2013-01-11 03:23:00,
2013-01-10 22:33:00,32.0,23.0,-100.00,ESE,110,1.0,4.0,68,0.00,,,-99.99,,2013-01-11 03:33:00,
2013-01-10 22:43:00,31.0,23.0,-100.00,WSW,240,0.0,2.0,71,0.00,,,-99.99,,2013-01-11 03:43:00,
2013-01-10 22:53:00,29.0,22.0,-100.00,South,170,1.0,2.0,73,0.00,,,-99.99,,2013-01-11 03:53:00,
2013-01-10 23:02:00,29.0,22.0,-100.00,South,180,1.0,2.0,74,0.00,,,-99.99,,2013-01-11 04:02:00,
2013-01-10 23:12:00,29.0,22.0,-100.00,SW,225,1.0,1.0,75,0.00,,,-99.99,,2013-01-11 04:12:00,
2013-01-10 23:22:00,28.0,22.0,-100.00,WSW,240,1.0,1.0,76,0.00,,,-99.99,,2013-01-11 04:22:00,
2013-01-10 23:33:00,28.0,22.0,-100.00,WSW,250,1.0,1.0,77,0.00,,,-99.99,,2013-01-11 04:33:00,
2013-01-10 23:43:00,28.0,22.0,-100.00,NNW,330,0.0,1.0,77,0.00,,,-99.99,,2013-01-11 04:43:00,
2013-01-10 23:52:00,28.0,23.0,-100.00,NNW,330,1.0,3.0,78,0.00,,,-99.99,,2013-01-11 04:52:00,